User: anonymous   Login
Location: Table Mountain
(47.2500°N, 120.5778°W)
Time: 04:09:28
(UTC-08:00)
Language:

KKS-1 - Orbit

View from above orbital plane
View from above orbital plane
View from above satellite
View from above satellite

Ground track
Ground track

The orbit data is extracted from the following two-line orbital elements,

1 33499U 09002H   18322.94597201 +.00000118 +00000-0 +25408-4 0  9995
2 33499 098.3555 149.7796 0009671 153.8027 206.3672 14.75381457527574
Epoch (UTC): 18 November 2018 22:42:11
Eccentricity: 0.0009671
inclination: 98.3555°
perigee height: 637 km
apogee height: 651 km
right ascension of ascending node: 149.7796°
argument of perigee: 153.8027°
revolutions per day: 14.75381457
mean anomaly at epoch: 206.3672°
orbit number at epoch: 52757

The dashed part of the orbit path shows where the satellite is in the earth's shadow,  

DLR